Time,TemperatureF,DewpointF,PressureIn,WindDirection,WindDirectionDegrees,WindSpeedMPH,WindSpeedGustMPH,Humidity,HourlyPrecipIn,Conditions,Clouds,dailyrainin,SoftwareType,DateUTC
2013-10-21 00:00:00,45.7,40.2,30.10,ENE,68,0.0,0.0,81,0.00,,CLR,0.00,VWS V12.08,2013-10-21 04:00:00,
2013-10-21 00:01:00,45.7,40.2,30.09,ENE,68,0.0,0.0,81,0.00,,CLR,0.00,VWS V12.08,2013-10-21 04:01:00,
2013-10-21 00:02:00,45.7,40.2,30.09,ENE,68,0.0,0.0,81,0.00,,CLR,0.00,VWS V12.08,2013-10-21 04:02:00,
2013-10-21 00:03:00,45.7,40.2,30.09,ENE,68,0.0,0.0,81,0.00,,CLR,0.00,VWS V12.08,2013-10-21 04:03:00,
2013-10-21 00:07:00,45.7,40.2,30.09,ENE,68,0.0,0.0,81,0.00,,CLR,0.00,VWS V12.08,2013-10-21 04:07:00,
2013-10-21 00:12:00,45.7,40.2,30.09,ENE,68,0.0,0.0,81,0.00,,CLR,0.00,VWS V12.08,2013-10-21 04:12:00,
2013-10-21 00:17:00,45.7,40.2,30.10,ENE,68,0.0,0.0,81,0.00,,CLR,0.00,VWS V12.08,2013-10-21 04:17:00,
2013-10-21 00:22:00,45.5,40.0,30.09,ENE,68,0.0,0.0,81,0.00,,CLR,0.00,VWS V12.08,2013-10-21 04:22:00,
2013-10-21 00:27:00,45.5,40.0,30.09,ENE,68,0.0,0.0,81,0.00,,CLR,0.00,VWS V12.08,2013-10-21 04:27:00,
2013-10-21 00:32:00,45.7,40.2,30.09,ENE,68,0.0,0.0,81,0.00,,CLR,0.00,VWS V12.08,2013-10-21 04:32:00,
2013-10-21 00:37:00,45.7,40.2,30.09,ENE,68,0.0,0.0,81,0.00,,CLR,0.00,VWS V12.08,2013-10-21 04:37:00,
2013-10-21 00:42:00,45.7,40.2,30.09,ENE,68,0.0,0.0,81,0.00,,CLR,0.00,VWS V12.08,2013-10-21 04:42:00,
2013-10-21 00:47:00,45.7,40.2,30.09,ENE,68,0.0,0.0,81,0.00,,CLR,0.00,VWS V12.08,2013-10-21 04:47:00,
2013-10-21 00:52:00,45.7,40.2,30.09,ENE,68,0.0,0.0,81,0.00,,CLR,0.00,VWS V12.08,2013-10-21 04:52:00,
2013-10-21 00:57:00,45.5,40.0,30.09,East,90,0.0,0.0,81,0.00,,CLR,0.00,VWS V12.08,2013-10-21 04:57:00,
2013-10-21 01:02:00,45.5,40.0,30.09,East,90,0.0,0.0,81,0.00,,CLR,0.00,VWS V12.08,2013-10-21 05:02:00,
2013-10-21 01:07:00,45.0,39.5,30.09,East,90,0.0,0.0,81,0.00,,CLR,0.00,VWS V12.08,2013-10-21 05:07:00,
2013-10-21 01:12:00,44.8,39.3,30.09,East,90,0.0,0.0,81,0.00,,CLR,0.00,VWS V12.08,2013-10-21 05:12:00,
2013-10-21 01:17:00,45.0,39.5,30.09,East,90,0.0,0.0,81,0.00,,CLR,0.00,VWS V12.08,2013-10-21 05:17:00,
2013-10-21 01:22:00,44.8,39.3,30.09,East,90,0.0,0.0,81,0.00,,CLR,0.00,VWS V12.08,2013-10-21 05:22:00,
2013-10-21 01:27:00,44.4,39.0,30.09,East,90,0.0,0.0,81,0.00,,CLR,0.00,VWS V12.08,2013-10-21 05:27:00,
2013-10-21 01:32:00,44.4,39.3,30.10,East,90,0.0,0.0,82,0.00,,CLR,0.00,VWS V12.08,2013-10-21 05:32:00,
2013-10-21 01:37:00,44.4,39.3,30.10,East,90,0.0,0.0,82,0.00,,CLR,0.00,VWS V12.08,2013-10-21 05:37:00,
2013-10-21 01:42:00,44.4,39.3,30.09,East,90,0.0,0.0,82,0.00,,CLR,0.00,VWS V12.08,2013-10-21 05:42:00,
2013-10-21 01:47:00,44.4,39.3,30.09,East,90,0.0,0.0,82,0.00,,CLR,0.00,VWS V12.08,2013-10-21 05:47:00,
2013-10-21 01:52:00,44.4,39.3,30.09,East,90,0.0,0.0,82,0.00,,CLR,0.00,VWS V12.08,2013-10-21 05:52:00,
2013-10-21 01:57:00,44.2,39.1,30.09,East,90,0.0,0.0,82,0.00,,CLR,0.00,VWS V12.08,2013-10-21 05:57:00,
2013-10-21 02:02:00,44.2,39.1,30.09,East,90,0.0,0.0,82,0.00,,CLR,0.00,VWS V12.08,2013-10-21 06:02:00,
2013-10-21 02:07:00,44.1,38.9,30.10,East,90,0.0,0.0,82,0.00,,CLR,0.00,VWS V12.08,2013-10-21 06:07:00,
2013-10-21 02:12:00,43.9,38.8,30.10,ENE,68,0.0,0.0,82,0.00,,CLR,0.00,VWS V12.08,2013-10-21 06:12:00,
2013-10-21 02:17:00,43.5,38.4,30.09,ENE,68,0.0,0.0,82,0.00,,CLR,0.00,VWS V12.08,2013-10-21 06:17:00,
2013-10-21 02:22:00,43.3,38.2,30.09,East,90,0.0,0.0,82,0.00,,CLR,0.00,VWS V12.08,2013-10-21 06:22:00,
2013-10-21 02:27:00,43.3,38.2,30.09,East,90,0.0,0.0,82,0.00,,CLR,0.00,VWS V12.08,2013-10-21 06:27:00,
2013-10-21 02:32:00,43.3,38.2,30.09,ENE,68,0.0,0.0,82,0.00,,CLR,0.00,VWS V12.08,2013-10-21 06:32:00,
2013-10-21 02:37:00,43.3,38.2,30.09,ENE,68,0.0,0.0,82,0.00,,CLR,0.00,VWS V12.08,2013-10-21 06:37:00,
2013-10-21 02:42:00,43.2,38.0,30.09,ENE,68,0.0,0.0,82,0.00,,CLR,0.00,VWS V12.08,2013-10-21 06:42:00,
2013-10-21 02:47:00,43.2,38.0,30.09,ENE,68,0.0,0.0,82,0.00,,CLR,0.00,VWS V12.08,2013-10-21 06:47:00,
2013-10-21 02:52:00,43.0,37.9,30.09,ENE,68,0.0,0.0,82,0.00,,CLR,0.00,VWS V12.08,2013-10-21 06:52:00,
2013-10-21 02:57:00,43.0,38.2,30.09,East,90,0.0,0.0,83,0.00,,CLR,0.00,VWS V12.08,2013-10-21 06:57:00,
2013-10-21 03:02:00,43.0,38.2,30.09,East,90,0.0,0.0,83,0.00,,CLR,0.00,VWS V12.08,2013-10-21 07:02:00,
2013-10-21 03:07:00,43.0,38.2,30.10,East,90,0.0,0.0,83,0.00,,CLR,0.00,VWS V12.08,2013-10-21 07:07:00,
2013-10-21 03:12:00,43.3,38.5,30.09,East,90,0.0,0.0,83,0.00,,CLR,0.00,VWS V12.08,2013-10-21 07:12:00,
2013-10-21 03:17:00,43.3,38.5,30.09,East,90,0.0,0.0,83,0.00,,CLR,0.00,VWS V12.08,2013-10-21 07:17:00,
2013-10-21 03:22:00,43.0,38.2,30.10,East,90,0.0,0.0,83,0.00,,CLR,0.00,VWS V12.08,2013-10-21 07:22:00,
2013-10-21 03:27:00,43.0,38.2,30.10,ENE,68,0.0,0.0,83,0.00,,CLR,0.00,VWS V12.08,2013-10-21 07:27:00,
2013-10-21 03:32:00,43.0,38.2,30.09,ENE,68,0.0,0.0,83,0.00,,CLR,0.00,VWS V12.08,2013-10-21 07:32:00,
2013-10-21 03:37:00,43.2,38.4,30.09,ENE,68,0.0,0.0,83,0.00,,CLR,0.00,VWS V12.08,2013-10-21 07:37:00,
2013-10-21 03:42:00,43.2,38.4,30.09,East,90,0.0,0.0,83,0.00,,CLR,0.00,VWS V12.08,2013-10-21 07:42:00,
2013-10-21 03:47:00,43.2,38.4,30.10,East,90,0.0,0.0,83,0.00,,CLR,0.00,VWS V12.08,2013-10-21 07:47:00,
2013-10-21 03:52:00,43.2,38.4,30.09,East,90,0.0,0.0,83,0.00,,CLR,0.00,VWS V12.08,2013-10-21 07:52:00,
2013-10-21 03:57:00,43.2,38.4,30.09,East,90,0.0,0.0,83,0.00,,CLR,0.00,VWS V12.08,2013-10-21 07:57:00,
2013-10-21 04:02:00,42.6,37.8,30.10,East,90,0.0,0.0,83,0.00,,CLR,0.00,VWS V12.08,2013-10-21 08:02:00,
2013-10-21 04:07:00,42.6,37.8,30.10,East,90,0.0,0.0,83,0.00,,CLR,0.00,VWS V12.08,2013-10-21 08:07:00,
2013-10-21 04:12:00,42.6,37.8,30.10,East,90,0.0,0.0,83,0.00,,CLR,0.00,VWS V12.08,2013-10-21 08:12:00,
2013-10-21 04:17:00,42.6,37.8,30.09,East,90,0.0,0.0,83,0.00,,CLR,0.00,VWS V12.08,2013-10-21 08:17:00,
2013-10-21 04:22:00,42.6,37.8,30.10,East,90,0.0,0.0,83,0.00,,CLR,0.00,VWS V12.08,2013-10-21 08:22:00,
2013-10-21 04:27:00,42.6,37.8,30.10,East,90,0.0,0.0,83,0.00,,CLR,0.00,VWS V12.08,2013-10-21 08:27:00,
2013-10-21 04:32:00,42.6,37.8,30.10,East,90,0.0,0.0,83,0.00,,CLR,0.00,VWS V12.08,2013-10-21 08:32:00,
2013-10-21 04:37:00,42.6,37.8,30.10,East,90,0.0,0.0,83,0.00,,CLR,0.00,VWS V12.08,2013-10-21 08:37:00,
2013-10-21 04:42:00,42.4,37.7,30.10,East,90,0.0,0.0,83,0.00,,CLR,0.00,VWS V12.08,2013-10-21 08:42:00,
2013-10-21 04:47:00,42.4,37.7,30.10,East,90,0.0,0.0,83,0.00,,CLR,0.00,VWS V12.08,2013-10-21 08:47:00,
2013-10-21 04:52:00,42.4,37.7,30.10,East,90,0.0,0.0,83,0.00,,CLR,0.00,VWS V12.08,2013-10-21 08:52:00,
2013-10-21 04:57:00,42.4,37.7,30.10,East,90,0.0,0.0,83,0.00,,CLR,0.00,VWS V12.08,2013-10-21 08:57:00,
2013-10-21 05:02:00,42.4,38.0,30.10,East,90,0.0,0.0,84,0.00,,CLR,0.00,VWS V12.08,2013-10-21 09:02:00,
2013-10-21 05:07:00,42.1,37.6,30.10,East,90,0.0,0.0,84,0.00,,CLR,0.00,VWS V12.08,2013-10-21 09:07:00,
2013-10-21 05:12:00,42.1,37.6,30.10,East,90,0.0,0.0,84,0.00,,CLR,0.00,VWS V12.08,2013-10-21 09:12:00,
2013-10-21 05:17:00,42.1,37.6,30.11,East,90,0.0,0.0,84,0.00,,CLR,0.00,VWS V12.08,2013-10-21 09:17:00,
2013-10-21 05:22:00,42.1,37.6,30.11,East,90,0.0,0.0,84,0.00,,CLR,0.00,VWS V12.08,2013-10-21 09:22:00,
2013-10-21 05:27:00,42.1,37.6,30.11,East,90,0.0,0.0,84,0.00,,CLR,0.00,VWS V12.08,2013-10-21 09:27:00,
2013-10-21 05:32:00,42.3,37.8,30.11,East,90,0.0,0.0,84,0.00,,CLR,0.00,VWS V12.08,2013-10-21 09:32:00,
2013-10-21 05:37:00,42.3,37.8,30.11,East,90,0.0,0.0,84,0.00,,CLR,0.00,VWS V12.08,2013-10-21 09:37:00,
2013-10-21 05:42:00,42.4,38.0,30.11,East,90,0.0,0.0,84,0.00,,CLR,0.00,VWS V12.08,2013-10-21 09:42:00,
2013-10-21 05:47:00,42.4,38.0,30.11,East,90,0.0,0.0,84,0.00,,CLR,0.00,VWS V12.08,2013-10-21 09:47:00,
2013-10-21 05:52:00,42.1,37.6,30.11,East,90,0.0,0.0,84,0.00,,CLR,0.00,VWS V12.08,2013-10-21 09:52:00,
2013-10-21 05:57:00,42.1,37.6,30.11,East,90,0.0,0.0,84,0.00,,CLR,0.00,VWS V12.08,2013-10-21 09:57:00,
2013-10-21 06:02:00,42.1,37.6,30.11,East,90,0.0,0.0,84,0.00,,CLR,0.00,VWS V12.08,2013-10-21 10:02:00,
2013-10-21 06:07:00,42.1,37.6,30.12,East,90,0.0,0.0,84,0.00,,CLR,0.00,VWS V12.08,2013-10-21 10:07:00,
2013-10-21 06:12:00,42.1,37.6,30.12,East,90,0.0,0.0,84,0.00,,CLR,0.00,VWS V12.08,2013-10-21 10:12:00,
2013-10-21 06:17:00,42.1,37.6,30.12,East,90,0.0,0.0,84,0.00,,CLR,0.00,VWS V12.08,2013-10-21 10:17:00,
2013-10-21 06:22:00,42.1,37.6,30.12,East,90,0.0,0.0,84,0.00,,CLR,0.00,VWS V12.08,2013-10-21 10:22:00,
2013-10-21 06:27:00,42.4,38.0,30.12,East,90,0.0,0.0,84,0.00,,CLR,0.00,VWS V12.08,2013-10-21 10:27:00,
2013-10-21 06:32:00,42.4,38.0,30.11,East,90,0.0,0.0,84,0.00,,CLR,0.00,VWS V12.08,2013-10-21 10:32:00,
2013-10-21 06:37:00,42.4,38.0,30.12,East,90,0.0,0.0,84,0.00,,CLR,0.00,VWS V12.08,2013-10-21 10:37:00,
2013-10-21 06:53:00,41.5,36.8,30.12,East,90,0.0,0.0,83,0.00,,CLR,0.00,VWS V12.08,2013-10-21 10:53:00,
2013-10-21 07:08:00,41.5,36.8,30.12,East,90,0.0,0.0,83,0.00,,CLR,0.00,VWS V12.08,2013-10-21 11:08:00,
2013-10-21 07:14:00,41.7,37.2,30.12,East,90,0.0,0.0,84,0.00,,CLR,0.00,VWS V12.08,2013-10-21 11:14:00,
2013-10-21 07:19:00,41.5,36.8,30.12,East,90,0.0,0.0,83,0.00,,CLR,0.00,VWS V12.08,2013-10-21 11:19:00,
2013-10-21 07:24:00,41.2,36.4,30.12,East,90,0.0,0.0,83,0.00,,CLR,0.00,VWS V12.08,2013-10-21 11:24:00,
2013-10-21 07:29:00,40.8,36.1,30.12,East,90,0.0,0.0,83,0.00,,CLR,0.00,VWS V12.08,2013-10-21 11:29:00,
2013-10-21 07:34:00,40.8,36.1,30.12,East,90,0.0,0.0,83,0.00,,CLR,0.00,VWS V12.08,2013-10-21 11:34:00,
2013-10-21 07:39:00,40.8,36.1,30.11,East,90,0.0,0.0,83,0.00,,CLR,0.00,VWS V12.08,2013-10-21 11:39:00,
2013-10-21 07:44:00,41.0,36.5,30.12,East,90,0.0,0.0,84,0.00,,CLR,0.00,VWS V12.08,2013-10-21 11:44:00,
2013-10-21 07:49:00,41.0,36.5,30.12,East,90,0.0,0.0,84,0.00,,CLR,0.00,VWS V12.08,2013-10-21 11:49:00,
2013-10-21 07:54:00,40.8,36.4,30.12,East,90,0.0,0.0,84,0.00,,CLR,0.00,VWS V12.08,2013-10-21 11:54:00,
2013-10-21 07:59:00,40.8,36.4,30.12,East,90,0.0,0.0,84,0.00,,CLR,0.00,VWS V12.08,2013-10-21 11:59:00,
2013-10-21 08:04:00,40.8,36.4,30.12,East,90,0.0,0.0,84,0.00,,CLR,0.00,VWS V12.08,2013-10-21 12:04:00,
2013-10-21 08:09:00,40.8,36.4,30.13,East,90,0.0,0.0,84,0.00,,CLR,0.00,VWS V12.08,2013-10-21 12:09:00,
2013-10-21 08:14:00,40.8,36.4,30.12,East,90,0.0,0.0,84,0.00,,CLR,0.00,VWS V12.08,2013-10-21 12:14:00,
2013-10-21 08:19:00,41.0,36.5,30.13,East,90,0.0,0.0,84,0.00,,CLR,0.00,VWS V12.08,2013-10-21 12:19:00,
2013-10-21 08:24:00,41.0,36.5,30.13,East,90,0.0,0.0,84,0.00,,CLR,0.00,VWS V12.08,2013-10-21 12:24:00,
2013-10-21 08:29:00,41.0,36.5,30.13,East,90,0.0,0.0,84,0.00,,CLR,0.00,VWS V12.08,2013-10-21 12:29:00,
2013-10-21 08:34:00,41.0,36.5,30.13,East,90,0.0,0.0,84,0.00,,CLR,0.00,VWS V12.08,2013-10-21 12:34:00,
2013-10-21 08:39:00,41.7,37.2,30.13,East,90,0.0,0.0,84,0.00,,CLR,0.00,VWS V12.08,2013-10-21 12:39:00,
2013-10-21 08:44:00,41.9,37.7,30.13,East,90,0.0,0.0,85,0.00,,CLR,0.00,VWS V12.08,2013-10-21 12:44:00,
2013-10-21 08:49:00,42.1,37.9,30.13,East,90,0.0,0.0,85,0.00,,CLR,0.00,VWS V12.08,2013-10-21 12:49:00,
2013-10-21 08:54:00,42.1,37.9,30.14,East,90,0.0,0.0,85,0.00,,CLR,0.00,VWS V12.08,2013-10-21 12:54:00,
2013-10-21 08:59:00,42.4,38.3,30.14,East,90,0.0,0.0,85,0.00,,CLR,0.00,VWS V12.08,2013-10-21 12:59:00,
2013-10-21 09:04:00,42.8,38.6,30.14,East,90,0.0,0.0,85,0.00,,CLR,0.00,VWS V12.08,2013-10-21 13:04:00,
2013-10-21 09:09:00,43.0,38.8,30.14,East,90,0.0,0.0,85,0.00,,CLR,0.00,VWS V12.08,2013-10-21 13:09:00,
2013-10-21 09:14:00,43.2,39.0,30.14,East,90,0.0,0.0,85,0.00,,CLR,0.00,VWS V12.08,2013-10-21 13:14:00,
2013-10-21 09:19:00,43.7,39.5,30.14,East,90,0.0,0.0,85,0.00,,CLR,0.00,VWS V12.08,2013-10-21 13:19:00,
2013-10-21 09:24:00,44.1,39.8,30.14,NE,45,0.0,0.0,85,0.00,,CLR,0.00,VWS V12.08,2013-10-21 13:24:00,
2013-10-21 09:29:00,45.0,41.0,30.14,NE,45,0.0,0.0,86,0.00,,CLR,0.00,VWS V12.08,2013-10-21 13:29:00,
2013-10-21 09:34:00,45.5,41.6,30.13,NE,45,0.0,0.0,86,0.00,,CLR,0.00,VWS V12.08,2013-10-21 13:34:00,
2013-10-21 09:39:00,46.0,42.1,30.14,NE,45,0.0,0.0,86,0.00,,CLR,0.00,VWS V12.08,2013-10-21 13:39:00,
2013-10-21 09:44:00,46.2,42.3,30.14,NE,45,0.0,0.0,86,0.00,,CLR,0.00,VWS V12.08,2013-10-21 13:44:00,
2013-10-21 09:49:00,46.6,42.6,30.14,NE,45,0.0,0.0,86,0.00,,CLR,0.00,VWS V12.08,2013-10-21 13:49:00,
2013-10-21 09:54:00,46.8,42.8,30.14,NE,45,0.0,0.0,86,0.00,,CLR,0.00,VWS V12.08,2013-10-21 13:54:00,
2013-10-21 09:59:00,47.1,43.2,30.13,NE,45,0.0,0.0,86,0.00,,CLR,0.00,VWS V12.08,2013-10-21 13:59:00,
2013-10-21 10:04:00,47.5,43.5,30.14,NE,45,0.0,0.0,86,0.00,,CLR,0.00,VWS V12.08,2013-10-21 14:04:00,
2013-10-21 10:09:00,47.8,43.9,30.14,NE,45,0.0,0.0,86,0.00,,CLR,0.00,VWS V12.08,2013-10-21 14:09:00,
2013-10-21 10:14:00,48.0,44.0,30.14,NE,45,0.0,0.0,86,0.00,,CLR,0.00,VWS V12.08,2013-10-21 14:14:00,
2013-10-21 10:19:00,48.4,44.4,30.14,NE,45,0.0,0.0,86,0.00,,CLR,0.00,VWS V12.08,2013-10-21 14:19:00,
2013-10-21 10:24:00,48.7,44.8,30.14,NE,45,0.0,0.0,86,0.00,,CLR,0.00,VWS V12.08,2013-10-21 14:24:00,
2013-10-21 10:29:00,49.1,44.5,30.14,NE,45,0.0,0.0,84,0.00,,CLR,0.00,VWS V12.08,2013-10-21 14:29:00,
2013-10-21 10:34:00,49.6,45.3,30.13,NE,45,0.0,0.0,85,0.00,,CLR,0.00,VWS V12.08,2013-10-21 14:34:00,
2013-10-21 10:39:00,49.8,45.2,30.14,NE,45,0.0,0.0,84,0.00,,CLR,0.00,VWS V12.08,2013-10-21 14:39:00,
2013-10-21 10:44:00,49.8,44.9,30.13,NE,45,0.0,0.0,83,0.00,,CLR,0.00,VWS V12.08,2013-10-21 14:44:00,
2013-10-21 10:49:00,50.4,45.1,30.13,NE,45,0.0,0.0,82,0.00,,CLR,0.00,VWS V12.08,2013-10-21 14:49:00,
2013-10-21 10:54:00,50.5,45.3,30.12,NE,45,0.0,0.0,82,0.00,,CLR,0.00,VWS V12.08,2013-10-21 14:54:00,
2013-10-21 10:59:00,50.9,45.6,30.12,NE,45,0.0,0.0,82,0.00,,CLR,0.00,VWS V12.08,2013-10-21 14:59:00,
2013-10-21 11:04:00,51.4,46.1,30.12,NE,45,0.0,0.0,82,0.00,,CLR,0.00,VWS V12.08,2013-10-21 15:04:00,
2013-10-21 11:09:00,51.6,46.0,30.12,NE,45,0.0,0.0,81,0.00,,CLR,0.00,VWS V12.08,2013-10-21 15:09:00,
2013-10-21 11:14:00,52.0,46.0,30.12,NE,45,0.0,0.0,80,0.00,,CLR,0.00,VWS V12.08,2013-10-21 15:14:00,
2013-10-21 11:19:00,52.3,46.0,30.13,WNW,292,0.0,0.0,79,0.00,,CLR,0.00,VWS V12.08,2013-10-21 15:19:00,
2013-10-21 11:24:00,52.7,46.4,30.13,West,270,0.0,0.0,79,0.00,,CLR,0.00,VWS V12.08,2013-10-21 15:24:00,
2013-10-21 11:29:00,52.9,46.5,30.13,West,270,0.0,0.0,79,0.00,,CLR,0.00,VWS V12.08,2013-10-21 15:29:00,
2013-10-21 11:34:00,53.2,46.9,30.13,NW,315,0.0,0.0,79,0.00,,CLR,0.00,VWS V12.08,2013-10-21 15:34:00,
2013-10-21 11:39:00,53.8,47.1,30.13,WNW,292,0.0,2.5,78,0.00,,CLR,0.00,VWS V12.08,2013-10-21 15:39:00,
2013-10-21 11:44:00,54.3,47.3,30.13,North,0,0.9,0.9,77,0.00,,CLR,0.00,VWS V12.08,2013-10-21 15:44:00,
2013-10-21 11:49:00,54.9,47.8,30.12,West,270,0.0,0.9,77,0.00,,CLR,0.00,VWS V12.08,2013-10-21 15:49:00,
2013-10-21 11:54:00,55.2,48.2,30.12,West,270,0.0,0.9,77,0.00,,CLR,0.00,VWS V12.08,2013-10-21 15:54:00,
2013-10-21 11:59:00,55.8,48.7,30.12,West,270,0.0,0.9,77,0.00,,CLR,0.00,VWS V12.08,2013-10-21 15:59:00,
2013-10-21 12:04:00,55.9,48.8,30.11,NE,45,0.0,0.0,77,0.00,,CLR,0.00,VWS V12.08,2013-10-21 16:04:00,
2013-10-21 12:09:00,56.3,48.8,30.11,NE,45,0.0,0.0,76,0.00,,CLR,0.00,VWS V12.08,2013-10-21 16:09:00,
2013-10-21 12:14:00,56.5,49.4,30.11,NE,45,0.0,0.0,77,0.00,,CLR,0.00,VWS V12.08,2013-10-21 16:14:00,
2013-10-21 12:19:00,57.0,49.9,30.12,NE,45,0.0,0.0,77,0.00,,CLR,0.00,VWS V12.08,2013-10-21 16:19:00,
2013-10-21 12:24:00,58.1,50.2,30.11,WNW,292,0.0,2.0,75,0.00,,CLR,0.00,VWS V12.08,2013-10-21 16:24:00,
2013-10-21 12:29:00,58.8,50.9,30.11,West,270,0.0,2.0,75,0.00,,CLR,0.00,VWS V12.08,2013-10-21 16:29:00,
2013-10-21 12:34:00,59.2,50.2,30.11,WNW,292,0.0,2.5,72,0.00,,CLR,0.00,VWS V12.08,2013-10-21 16:34:00,
2013-10-21 12:39:00,59.2,50.2,30.10,West,270,0.0,2.5,72,0.00,,CLR,0.00,VWS V12.08,2013-10-21 16:39:00,
2013-10-21 12:44:00,59.0,49.6,30.10,West,270,0.0,0.0,71,0.00,,CLR,0.00,VWS V12.08,2013-10-21 16:44:00,
2013-10-21 12:49:00,58.8,49.1,30.10,West,270,0.0,0.0,70,0.00,,CLR,0.00,VWS V12.08,2013-10-21 16:49:00,
2013-10-21 12:54:00,58.8,49.5,30.09,WSW,248,0.0,0.0,71,0.00,,CLR,0.00,VWS V12.08,2013-10-21 16:54:00,
2013-10-21 12:59:00,58.8,49.8,30.09,West,270,0.0,0.0,72,0.00,,CLR,0.00,VWS V12.08,2013-10-21 16:59:00,
2013-10-21 13:04:00,59.4,50.3,30.09,WNW,292,0.0,0.0,72,0.00,,CLR,0.00,VWS V12.08,2013-10-21 17:04:00,
2013-10-21 13:09:00,59.5,50.1,30.09,WNW,292,0.0,0.0,71,0.00,,CLR,0.00,VWS V12.08,2013-10-21 17:09:00,
2013-10-21 13:14:00,59.7,50.3,30.09,WNW,292,0.0,0.0,71,0.00,,CLR,0.00,VWS V12.08,2013-10-21 17:14:00,
2013-10-21 13:19:00,59.9,50.5,30.09,WNW,292,0.0,0.0,71,0.00,,CLR,0.00,VWS V12.08,2013-10-21 17:19:00,
2013-10-21 13:24:00,60.1,51.0,30.08,WNW,292,0.0,0.0,72,0.00,,CLR,0.00,VWS V12.08,2013-10-21 17:24:00,
2013-10-21 13:29:00,61.0,51.5,30.08,West,270,0.0,0.0,71,0.00,,CLR,0.00,VWS V12.08,2013-10-21 17:29:00,
2013-10-21 13:34:00,61.9,51.6,30.07,WSW,248,0.0,1.3,69,0.00,,CLR,0.00,VWS V12.08,2013-10-21 17:34:00,
2013-10-21 13:39:00,62.1,51.4,30.07,WSW,248,0.0,1.3,68,0.00,,CLR,0.00,VWS V12.08,2013-10-21 17:39:00,
2013-10-21 13:44:00,61.9,51.6,30.07,West,270,0.0,0.0,69,0.00,,CLR,0.00,VWS V12.08,2013-10-21 17:44:00,
2013-10-21 13:49:00,62.2,52.0,30.07,West,270,0.0,0.0,69,0.00,,CLR,0.00,VWS V12.08,2013-10-21 17:49:00,
2013-10-21 13:54:00,62.1,51.8,30.07,West,270,0.0,0.0,69,0.00,,CLR,0.00,VWS V12.08,2013-10-21 17:54:00,
2013-10-21 13:59:00,62.2,51.2,30.06,WNW,292,0.0,5.8,67,0.00,,CLR,0.00,VWS V12.08,2013-10-21 17:59:00,
2013-10-21 14:04:00,62.8,52.1,30.06,North,0,0.0,0.0,68,0.00,,CLR,0.00,VWS V12.08,2013-10-21 18:04:00,
2013-10-21 14:09:00,63.1,52.4,30.06,NNE,22,0.0,0.0,68,0.00,,CLR,0.00,VWS V12.08,2013-10-21 18:09:00,
2013-10-21 14:14:00,63.7,52.9,30.06,NNE,22,0.0,0.0,68,0.00,,CLR,0.00,VWS V12.08,2013-10-21 18:14:00,
2013-10-21 14:19:00,64.0,52.5,30.05,WNW,292,0.0,1.6,66,0.00,,CLR,0.00,VWS V12.08,2013-10-21 18:19:00,
2013-10-21 14:24:00,64.2,52.2,30.05,WNW,292,2.5,3.6,65,0.00,,CLR,0.00,VWS V12.08,2013-10-21 18:24:00,
2013-10-21 14:29:00,64.9,51.6,30.04,West,270,0.0,3.6,62,0.00,,CLR,0.00,VWS V12.08,2013-10-21 18:29:00,
2013-10-21 14:34:00,65.1,51.3,30.04,West,270,0.0,3.6,61,0.00,,CLR,0.00,VWS V12.08,2013-10-21 18:34:00,
2013-10-21 14:39:00,65.3,51.1,30.04,West,270,0.0,3.6,60,0.00,,CLR,0.00,VWS V12.08,2013-10-21 18:39:00,
2013-10-21 14:44:00,65.8,52.0,30.04,WNW,292,0.0,2.5,61,0.00,,CLR,0.00,VWS V12.08,2013-10-21 18:44:00,
2013-10-21 14:49:00,66.0,50.8,30.04,West,270,0.0,4.7,58,0.00,,CLR,0.00,VWS V12.08,2013-10-21 18:49:00,
2013-10-21 14:54:00,66.0,50.8,30.03,NW,315,0.0,4.7,58,0.00,,CLR,0.00,VWS V12.08,2013-10-21 18:54:00,
2013-10-21 14:59:00,66.0,50.8,30.03,ESE,112,0.0,4.7,58,0.00,,CLR,0.00,VWS V12.08,2013-10-21 18:59:00,
2013-10-21 15:04:00,66.0,51.3,30.03,West,270,0.0,3.6,59,0.00,,CLR,0.00,VWS V12.08,2013-10-21 19:04:00,
2013-10-21 15:09:00,66.2,51.5,30.03,West,270,0.0,3.6,59,0.00,,CLR,0.00,VWS V12.08,2013-10-21 19:09:00,
2013-10-21 15:14:00,66.4,51.6,30.04,WSW,248,0.0,3.6,59,0.00,,CLR,0.00,VWS V12.08,2013-10-21 19:14:00,
2013-10-21 15:19:00,66.4,50.7,30.04,SSW,202,0.0,3.6,57,0.00,,CLR,0.00,VWS V12.08,2013-10-21 19:19:00,
2013-10-21 15:27:00,66.4,50.7,30.03,SW,225,0.0,0.0,57,0.00,,CLR,0.00,VWS V12.08,2013-10-21 19:27:00,
2013-10-21 15:32:00,66.4,50.7,30.03,NE,45,0.0,3.6,57,0.00,,CLR,0.00,VWS V12.08,2013-10-21 19:32:00,
2013-10-21 15:37:00,66.4,51.2,30.03,NW,315,2.5,3.6,58,0.00,,CLR,0.00,VWS V12.08,2013-10-21 19:37:00,
2013-10-21 15:42:00,66.4,51.2,30.03,East,90,0.0,0.0,58,0.00,,CLR,0.00,VWS V12.08,2013-10-21 19:42:00,
2013-10-21 15:47:00,66.7,51.5,30.03,WSW,248,0.0,0.0,58,0.00,,CLR,0.00,VWS V12.08,2013-10-21 19:47:00,
2013-10-21 15:52:00,66.6,50.9,30.02,SW,225,0.0,4.3,57,0.00,,CLR,0.00,VWS V12.08,2013-10-21 19:52:00,
2013-10-21 15:57:00,66.4,51.6,30.02,East,90,0.0,4.3,59,0.00,,CLR,0.00,VWS V12.08,2013-10-21 19:57:00,
2013-10-21 16:02:00,66.4,51.6,30.01,East,90,0.0,0.0,59,0.00,,CLR,0.00,VWS V12.08,2013-10-21 20:02:00,
2013-10-21 16:07:00,66.2,51.5,30.02,SE,135,0.0,0.0,59,0.00,,CLR,0.00,VWS V12.08,2013-10-21 20:07:00,
2013-10-21 16:12:00,66.0,51.8,30.02,WNW,292,0.9,0.9,60,0.00,,CLR,0.00,VWS V12.08,2013-10-21 20:12:00,
2013-10-21 16:17:00,65.8,51.6,30.01,NNE,22,0.0,2.0,60,0.00,,CLR,0.00,VWS V12.08,2013-10-21 20:17:00,
2013-10-21 16:22:00,65.7,51.4,30.01,North,0,0.0,0.0,60,0.00,,CLR,0.00,VWS V12.08,2013-10-21 20:22:00,
2013-10-21 16:27:00,65.3,51.5,30.01,North,0,0.0,0.0,61,0.00,,CLR,0.00,VWS V12.08,2013-10-21 20:27:00,
2013-10-21 16:32:00,65.1,51.3,30.01,NE,45,0.0,2.0,61,0.00,,CLR,0.00,VWS V12.08,2013-10-21 20:32:00,
2013-10-21 16:37:00,65.1,51.8,30.01,NE,45,0.0,2.0,62,0.00,,CLR,0.00,VWS V12.08,2013-10-21 20:37:00,
2013-10-21 16:42:00,65.1,52.2,30.01,NE,45,0.0,0.0,63,0.00,,CLR,0.00,VWS V12.08,2013-10-21 20:42:00,
2013-10-21 16:47:00,64.8,52.3,30.01,ESE,112,0.0,1.8,64,0.00,,CLR,0.00,VWS V12.08,2013-10-21 20:47:00,
2013-10-21 16:52:00,64.8,51.5,30.01,SSW,202,1.1,2.7,62,0.00,,CLR,0.00,VWS V12.08,2013-10-21 20:52:00,
2013-10-21 16:57:00,64.6,51.3,30.01,SSW,202,0.0,2.7,62,0.00,,CLR,0.00,VWS V12.08,2013-10-21 20:57:00,
2013-10-21 17:02:00,64.6,51.3,30.01,South,180,0.0,0.0,62,0.00,,CLR,0.00,VWS V12.08,2013-10-21 21:02:00,
2013-10-21 17:07:00,64.6,51.7,30.01,SE,135,2.2,2.2,63,0.00,,CLR,0.00,VWS V12.08,2013-10-21 21:07:00,
2013-10-21 17:12:00,64.2,52.2,30.01,ESE,112,0.0,2.9,65,0.00,,CLR,0.00,VWS V12.08,2013-10-21 21:12:00,
2013-10-21 17:17:00,64.0,52.0,30.01,ESE,112,0.0,2.9,65,0.00,,CLR,0.00,VWS V12.08,2013-10-21 21:17:00,
2013-10-21 17:22:00,63.7,51.3,30.01,SW,225,0.0,0.0,64,0.00,,CLR,0.00,VWS V12.08,2013-10-21 21:22:00,
2013-10-21 17:27:00,63.5,51.5,30.01,SW,225,0.0,0.0,65,0.00,,CLR,0.00,VWS V12.08,2013-10-21 21:27:00,
2013-10-21 17:32:00,63.1,51.6,30.01,SW,225,0.0,0.0,66,0.00,,CLR,0.00,VWS V12.08,2013-10-21 21:32:00,
2013-10-21 17:37:00,63.0,51.8,30.01,SW,225,0.0,0.0,67,0.00,,CLR,0.00,VWS V12.08,2013-10-21 21:37:00,
2013-10-21 17:42:00,62.8,52.1,30.01,SW,225,0.0,0.0,68,0.00,,CLR,0.00,VWS V12.08,2013-10-21 21:42:00,
2013-10-21 17:47:00,62.2,51.6,30.02,SSW,202,0.0,0.0,68,0.00,,CLR,0.00,VWS V12.08,2013-10-21 21:47:00,
2013-10-21 17:52:00,61.9,51.2,30.01,SSW,202,0.0,0.0,68,0.00,,CLR,0.00,VWS V12.08,2013-10-21 21:52:00,
2013-10-21 17:57:00,61.7,51.4,30.01,SSW,202,0.0,0.0,69,0.00,,CLR,0.00,VWS V12.08,2013-10-21 21:57:00,
2013-10-21 18:02:00,61.5,51.3,30.01,SSW,202,0.0,0.0,69,0.00,,CLR,0.00,VWS V12.08,2013-10-21 22:02:00,
2013-10-21 18:07:00,61.0,51.1,30.01,SSW,202,0.0,0.0,70,0.00,,CLR,0.00,VWS V12.08,2013-10-21 22:07:00,
2013-10-21 18:12:00,60.8,51.0,30.01,SSW,202,0.0,0.0,70,0.00,,CLR,0.00,VWS V12.08,2013-10-21 22:12:00,
2013-10-21 18:17:00,60.4,51.0,30.02,SSW,202,0.0,0.0,71,0.00,,CLR,0.00,VWS V12.08,2013-10-21 22:17:00,
2013-10-21 18:22:00,60.3,50.8,30.02,SSW,202,0.0,0.0,71,0.00,,CLR,0.00,VWS V12.08,2013-10-21 22:22:00,
2013-10-21 18:27:00,60.1,51.0,30.02,SSW,202,0.0,0.0,72,0.00,,CLR,0.00,VWS V12.08,2013-10-21 22:27:00,
2013-10-21 18:32:00,59.7,50.7,30.02,NE,45,0.0,0.0,72,0.00,,CLR,0.00,VWS V12.08,2013-10-21 22:32:00,
2013-10-21 18:37:00,59.5,50.5,30.02,NE,45,0.0,0.0,72,0.00,,CLR,0.00,VWS V12.08,2013-10-21 22:37:00,
2013-10-21 18:42:00,59.2,50.2,30.01,NE,45,0.0,0.0,72,0.00,,CLR,0.00,VWS V12.08,2013-10-21 22:42:00,
2013-10-21 18:47:00,58.8,49.8,30.02,NE,45,0.0,0.0,72,0.00,,CLR,0.00,VWS V12.08,2013-10-21 22:47:00,
2013-10-21 18:52:00,58.8,50.2,30.02,ENE,68,0.0,0.0,73,0.00,,CLR,0.00,VWS V12.08,2013-10-21 22:52:00,
2013-10-21 18:57:00,58.6,50.4,30.02,ENE,68,0.0,0.0,74,0.00,,CLR,0.00,VWS V12.08,2013-10-21 22:57:00,
2013-10-21 19:02:00,58.3,50.0,30.02,ENE,68,0.0,0.0,74,0.00,,CLR,0.00,VWS V12.08,2013-10-21 23:02:00,
2013-10-21 19:07:00,58.1,50.2,30.02,ENE,68,0.0,0.0,75,0.00,,CLR,0.00,VWS V12.08,2013-10-21 23:07:00,
2013-10-21 19:12:00,57.9,50.0,30.01,ENE,68,0.0,0.0,75,0.00,,CLR,0.00,VWS V12.08,2013-10-21 23:12:00,
2013-10-21 19:17:00,57.6,50.1,30.02,ENE,68,0.0,0.0,76,0.00,,CLR,0.00,VWS V12.08,2013-10-21 23:17:00,
2013-10-21 19:22:00,57.4,49.9,30.02,ENE,68,0.0,0.0,76,0.00,,CLR,0.00,VWS V12.08,2013-10-21 23:22:00,
2013-10-21 19:27:00,57.4,49.9,30.02,ENE,68,0.0,0.0,76,0.00,,CLR,0.00,VWS V12.08,2013-10-21 23:27:00,
2013-10-21 19:32:00,57.4,49.9,30.02,ENE,68,0.0,0.0,76,0.00,,CLR,0.00,VWS V12.08,2013-10-21 23:32:00,
2013-10-21 19:37:00,57.0,49.9,30.02,ENE,68,0.0,0.0,77,0.00,,CLR,0.00,VWS V12.08,2013-10-21 23:37:00,
2013-10-21 19:42:00,56.8,49.7,30.01,ENE,68,0.0,0.0,77,0.00,,CLR,0.00,VWS V12.08,2013-10-21 23:42:00,
2013-10-21 19:47:00,56.8,49.7,30.01,ENE,68,0.0,0.0,77,0.00,,CLR,0.00,VWS V12.08,2013-10-21 23:47:00,
2013-10-21 19:52:00,56.5,49.4,30.01,ENE,68,0.0,0.0,77,0.00,,CLR,0.00,VWS V12.08,2013-10-21 23:52:00,
2013-10-21 19:57:00,56.5,49.4,30.01,ENE,68,0.0,0.0,77,0.00,,CLR,0.00,VWS V12.08,2013-10-21 23:57:00,
2013-10-21 20:02:00,56.1,49.4,30.01,ENE,68,0.0,0.0,78,0.00,,CLR,0.00,VWS V12.08,2013-10-22 00:02:00,
2013-10-21 20:07:00,55.9,49.2,30.01,ENE,68,0.0,0.0,78,0.00,,CLR,0.00,VWS V12.08,2013-10-22 00:07:00,
2013-10-21 20:12:00,55.9,49.2,30.01,ENE,68,0.0,0.0,78,0.00,,CLR,0.00,VWS V12.08,2013-10-22 00:12:00,
2013-10-21 20:17:00,55.6,48.8,30.01,ENE,68,0.0,0.0,78,0.00,,CLR,0.00,VWS V12.08,2013-10-22 00:17:00,
2013-10-21 20:22:00,55.4,49.0,30.01,ENE,68,0.0,0.0,79,0.00,,CLR,0.00,VWS V12.08,2013-10-22 00:22:00,
2013-10-21 20:27:00,55.4,49.0,30.01,ENE,68,0.0,0.0,79,0.00,,CLR,0.00,VWS V12.08,2013-10-22 00:27:00,
2013-10-21 20:32:00,55.4,49.0,30.01,ENE,68,0.0,0.0,79,0.00,,CLR,0.00,VWS V12.08,2013-10-22 00:32:00,
2013-10-21 20:37:00,55.0,48.7,30.01,ENE,68,0.0,0.0,79,0.00,,CLR,0.00,VWS V12.08,2013-10-22 00:37:00,
2013-10-21 20:42:00,55.0,48.7,30.01,ENE,68,0.0,0.0,79,0.00,,CLR,0.00,VWS V12.08,2013-10-22 00:42:00,
2013-10-21 20:47:00,54.9,48.5,30.01,ENE,68,0.0,0.0,79,0.00,,CLR,0.00,VWS V12.08,2013-10-22 00:47:00,
2013-10-21 20:52:00,54.5,48.5,30.01,ENE,68,0.0,0.0,80,0.00,,CLR,0.00,VWS V12.08,2013-10-22 00:52:00,
2013-10-21 20:57:00,54.3,48.3,30.01,ENE,68,0.0,0.0,80,0.00,,CLR,0.00,VWS V12.08,2013-10-22 00:57:00,
2013-10-21 21:02:00,54.3,48.3,30.01,ENE,68,0.0,0.0,80,0.00,,CLR,0.00,VWS V12.08,2013-10-22 01:02:00,
2013-10-21 21:07:00,54.3,48.3,30.01,ENE,68,0.0,0.0,80,0.00,,CLR,0.00,VWS V12.08,2013-10-22 01:07:00,
2013-10-21 21:12:00,54.3,48.6,30.01,ENE,68,0.0,0.0,81,0.00,,CLR,0.00,VWS V12.08,2013-10-22 01:12:00,
2013-10-21 21:17:00,54.3,48.6,30.01,ENE,68,0.0,0.0,81,0.00,,CLR,0.00,VWS V12.08,2013-10-22 01:17:00,
2013-10-21 21:22:00,54.1,48.5,30.01,ENE,68,0.0,0.0,81,0.00,,CLR,0.00,VWS V12.08,2013-10-22 01:22:00,
2013-10-21 21:27:00,54.1,48.5,30.01,ENE,68,0.0,0.0,81,0.00,,CLR,0.00,VWS V12.08,2013-10-22 01:27:00,
2013-10-21 21:32:00,54.1,48.5,30.01,ENE,68,0.0,0.0,81,0.00,,CLR,0.00,VWS V12.08,2013-10-22 01:32:00,
2013-10-21 21:37:00,53.8,48.1,30.01,ENE,68,0.0,0.0,81,0.00,,CLR,0.00,VWS V12.08,2013-10-22 01:37:00,
2013-10-21 21:42:00,53.8,48.1,30.01,ENE,68,0.0,0.0,81,0.00,,CLR,0.00,VWS V12.08,2013-10-22 01:42:00,
2013-10-21 21:47:00,53.8,48.1,30.01,ENE,68,0.0,0.0,81,0.00,,CLR,0.00,VWS V12.08,2013-10-22 01:47:00,
2013-10-21 21:52:00,53.4,48.1,30.01,ENE,68,0.0,0.0,82,0.00,,CLR,0.00,VWS V12.08,2013-10-22 01:52:00,
2013-10-21 21:54:00,53.4,48.1,30.01,ENE,68,0.0,0.0,82,0.00,,CLR,0.00,VWS V12.08,2013-10-22 01:54:00,
2013-10-21 21:59:00,53.4,48.1,30.01,ENE,68,0.0,0.0,82,0.00,,CLR,0.00,VWS V12.08,2013-10-22 01:59:00,
2013-10-21 22:04:00,53.4,48.1,30.01,ENE,68,0.0,0.0,82,0.00,,CLR,0.00,VWS V12.08,2013-10-22 02:04:00,
2013-10-21 22:09:00,53.2,47.9,30.01,ENE,68,0.0,0.0,82,0.00,,CLR,0.00,VWS V12.08,2013-10-22 02:09:00,
2013-10-21 22:14:00,53.2,47.9,30.01,ENE,68,0.0,0.0,82,0.00,,CLR,0.00,VWS V12.08,2013-10-22 02:14:00,
2013-10-21 22:19:00,53.2,47.9,30.01,ENE,68,0.0,0.0,82,0.00,,CLR,0.00,VWS V12.08,2013-10-22 02:19:00,
2013-10-21 22:24:00,53.2,47.9,30.01,ENE,68,0.0,0.0,82,0.00,,CLR,0.00,VWS V12.08,2013-10-22 02:24:00,
2013-10-21 22:29:00,53.2,47.9,30.00,ENE,68,0.0,0.0,82,0.00,,CLR,0.00,VWS V12.08,2013-10-22 02:29:00,
2013-10-21 22:34:00,53.2,47.9,30.00,ENE,68,0.0,0.0,82,0.00,,CLR,0.00,VWS V12.08,2013-10-22 02:34:00,
2013-10-21 22:39:00,53.1,47.7,30.00,ENE,68,0.0,0.0,82,0.00,,CLR,0.00,VWS V12.08,2013-10-22 02:39:00,
2013-10-21 22:44:00,52.9,47.5,30.00,ENE,68,0.0,0.0,82,0.00,,CLR,0.00,VWS V12.08,2013-10-22 02:44:00,
2013-10-21 22:49:00,52.9,47.5,30.00,ENE,68,0.0,0.0,82,0.00,,CLR,0.00,VWS V12.08,2013-10-22 02:49:00,
2013-10-21 22:54:00,52.9,47.5,30.00,ENE,68,0.0,0.0,82,0.00,,CLR,0.00,VWS V12.08,2013-10-22 02:54:00,
2013-10-21 22:59:00,52.9,47.9,29.99,ENE,68,0.0,0.0,83,0.00,,CLR,0.00,VWS V12.08,2013-10-22 02:59:00,
2013-10-21 23:04:00,52.7,47.7,30.00,ENE,68,0.0,0.0,83,0.00,,CLR,0.00,VWS V12.08,2013-10-22 03:04:00,
2013-10-21 23:09:00,52.7,47.7,30.00,ENE,68,0.0,0.0,83,0.00,,CLR,0.00,VWS V12.08,2013-10-22 03:09:00,
2013-10-21 23:14:00,52.7,47.7,29.99,ENE,68,0.0,0.0,83,0.00,,CLR,0.00,VWS V12.08,2013-10-22 03:14:00,
2013-10-21 23:19:00,52.9,47.9,29.99,ENE,68,0.0,0.0,83,0.00,,CLR,0.00,VWS V12.08,2013-10-22 03:19:00,
2013-10-21 23:24:00,52.9,47.9,30.00,ENE,68,0.0,0.0,83,0.00,,CLR,0.00,VWS V12.08,2013-10-22 03:24:00,
2013-10-21 23:29:00,52.9,47.9,29.99,ENE,68,0.0,0.0,83,0.00,,CLR,0.00,VWS V12.08,2013-10-22 03:29:00,
2013-10-21 23:34:00,52.7,47.7,29.99,ENE,68,0.0,0.0,83,0.00,,CLR,0.00,VWS V12.08,2013-10-22 03:34:00,
2013-10-21 23:39:00,52.7,47.7,29.99,ENE,68,0.0,0.0,83,0.00,,CLR,0.00,VWS V12.08,2013-10-22 03:39:00,
2013-10-21 23:44:00,52.7,47.7,29.99,ENE,68,0.0,0.0,83,0.00,,CLR,0.00,VWS V12.08,2013-10-22 03:44:00,
2013-10-21 23:49:00,52.5,47.5,29.99,ENE,68,0.0,0.0,83,0.00,,CLR,0.00,VWS V12.08,2013-10-22 03:49:00,
2013-10-21 23:54:00,52.5,47.5,30.00,ENE,68,0.0,0.0,83,0.00,,CLR,0.00,VWS V12.08,2013-10-22 03:54:00,
2013-10-21 23:59:00,52.3,47.3,30.00,ENE,68,0.0,0.0,83,0.00,,CLR,0.00,VWS V12.08,2013-10-22 03:59:00,